Simultaneous Nadir Overpasses (SNOs) Predictions

Prediction of SNOs between METOP-B and NPP Satellite Orbit:

Table of predicted SNOs for the next 14.0 days since TLE Epoch: 1/28/2017
Index Date (METOP-B) Time (METOP-B) Lat,Lon (METOP-B) SZA (METOP-B ) Date (NPP) Time (NPP) Lat,Lon (NPP) SZA (NPP ) Distance(km) Time Diff (sec)
1 02/11/2017 08:16:15 73.30, 49.33 87.37 02/11/2017 08:15:07 73.32, 46.84 87.55 79.70 68
2 02/11/2017 09:06:58 -73.23,-143.48 92.70 02/11/2017 09:05:49 -73.23,-145.64 92.57 69.25 69
3 02/11/2017 09:57:42 73.02, 23.39 87.10 02/11/2017 09:56:31 73.03, 22.11 87.20 41.59 71
4 02/11/2017 10:48:26 -72.91,-169.52 93.01 02/11/2017 10:47:13 -72.93,-170.37 92.92 28.05 73
5 02/11/2017 11:39:09 72.74, -2.53 86.84 02/11/2017 11:37:55 72.73, -2.64 86.85 3.80 74
6 02/11/2017 12:29:52 -72.68, 164.67 93.23 02/11/2017 12:28:38 -72.69, 164.76 93.21 3.26 74
7 02/11/2017 13:20:31 72.72, -27.92 86.79 02/11/2017 13:19:24 72.69, -27.92 86.78 3.63 67
8 02/11/2017 14:11:13 -72.71, 139.39 93.23 02/11/2017 14:10:08 -72.70, 139.38 93.23 1.35 65
9 02/11/2017 15:01:53 72.69, -53.31 86.75 02/11/2017 15:00:54 72.69, -53.31 86.76 0.18 59
10 02/11/2017 15:52:35 -72.68, 114.00 93.28 02/11/2017 15:51:38 -72.70, 113.99 93.24 2.16 57
11 02/11/2017 16:43:15 72.67, -78.70 86.70 02/11/2017 16:42:24 72.70, -78.70 86.75 3.31 51
12 02/11/2017 17:33:57 -72.66, 88.61 93.32 02/11/2017 17:33:07 -72.66, 88.70 93.32 3.09 50
13 02/11/2017 18:24:37 72.65,-104.09
